{"data":{"norad_id":53851,"epoch":"2026-05-25T04:32:33.543168Z","epoch_age_seconds":58885,"freshness":"FRESH","line1":"1 53851U 22114AK  26145.18927712  .00000669  00000+0  60113-4 0  9992","line2":"2 53851  53.2137 310.4746 0001190  88.1272 271.9857 15.08843558204528","mean_motion":15.08843558,"eccentricity":0.000119,"inclination_deg":53.2137,"raan_deg":310.4746,"arg_perigee_deg":88.1272,"mean_anomaly_deg":271.9857,"bstar":6.0113e-5,"rev_number":20452,"period_min":95.437329626721,"perigee_km":538.90928713076,"apogee_km":540.55574007499,"semimajor_km":6917.8695136029,"source":"CELESTRAK","updated_at":"2026-05-25T13:38:17.576533Z"}}